Regional Weather Roundup
Issued by NWS Midland/Odessa, TX

Home | Current Version | Previous Version | Text Only | Print | Product List | Glossary On
Versions: 1 2 3 4 5 6 7 8 9 10 11 12 13 14 15 16 17 18 19 20 21 22 23 24 25 26 27 28 29 30 31 32 33 34 35 36 37 38 39 40 41 42 43 44 45 46 47 48 49 50
000
ASUS44 KMAF 190002
RWRMAF
MIDLAND AREA WEATHER ROUNDUP
NATIONAL WEATHER SERVICE MIDLAND TX
700 PM CDT FRI APR 18 2014

...IN SOUTHWEST TEXAS AND SOUTHEAST NEW MEXICO...

CITY           SKY/WX    TMP DP  RH WIND       PRES   REMARKS
ALPINE         SUNNY     74  45  35 SE17      30.13S
ANDREWS        FAIR      74  45  35 SE15G22   30.07F
ARTESIA        PTSUNNY   73  46  38 S20       30.03F
BIG SPRING     CLOUDY    76  45  33 E12       30.11S
CARLSBAD       MOSUNNY   78  42  27 SE15G22   30.01F
DRYDEN           N/A     76  51  41 E21G26    30.03F
FORT STOCKTON  SUNNY     74  49  41 SE17G26   30.04F
GUAD PASS      PTSUNNY   68  40  35 E25       30.10F
HOBBS          PTSUNNY   73  41  31 SE16G24   30.07F
MARFA          SUNNY     73  43  33 SE17G24   30.11S
MIDLAND AIRPK  SUNNY     77  44  30 S16       30.07F
MIDLAND INTL   SUNNY     76  46  34 SE17G28   30.06F
ODESSA         SUNNY     76  44  32 SE17      30.06F
PECOS          SUNNY     78  46  33 E21G26    29.99F
PRESIDIO       FAIR      85  42  22 E12G21    29.94S
SEMINOLE       MOSUNNY   72  45  37 SE14G22   30.09F
SNYDER         CLOUDY    72  45  38 E10G21    30.10F
WINK           SUNNY     78  47  33 SE18G26   30.01F
$$
...OTHER STATIONS IN TEXAS...

CITY           SKY/WX    TMP DP  RH WIND       PRES   REMARKS
ABILENE        PTSUNNY   72  44  36 S8G20     30.11F
AMARILLO       MOSUNNY   70  42  36 S24G30    30.06S
AUSTIN         PTSUNNY   75  53  46 E9        30.10S
BROWNSVILLE    MOSUNNY   72  61  68 NE12      30.10S
CORPUS CHRISTI CLOUDY    75  56  51 SE9       30.09R
DALLAS FTW     MOSUNNY   74  44  34 CALM      30.12R
DEL RIO        PTSUNNY   79  51  37 SE10      30.03F
EL PASO        CLOUDY    81  33  17 SE12G22   29.93F
HOUSTON INT    PTCLDY    76  52  43 N7        30.09R
LUBBOCK        CLOUDY    69  46  43 SE17      30.08F
SAN ANGELO     CLOUDY    76  46  34 E13       30.07S
SAN ANTONIO    PTSUNNY   75  55  49 E9        30.09F
WACO           SUNNY     72  53  51 CALM      30.12S
WICHITA FALLS  NOT AVBL
$$
...OTHER LOCATIONS IN NEW MEXICO...

CITY           SKY/WX    TMP DP  RH WIND       PRES   REMARKS
ALAMAGORDO     PTSUNNY   77  32  19 SE16G28   29.99F
ALBUQUERQUE    PTSUNNY   75  22  13 S23G35    30.00S
CANNON AFB     NOT AVBL
CLOVIS         CLOUDY    66  43  42 S18G25    30.11S
HOLLOMAN AFB   PTSUNNY   79  35  20 SE23      29.96F
ROSWELL        PTSUNNY   73  45  36 S18       30.03F
RUIDOSO        NOT AVBL
SANTA FE       PTSUNNY   70  17  13 SW12      30.04F
TRUTH OR CONSE CLOUDY    76  25  15 SW14G25   29.99F
TUCUMCARI      CLOUDY    73  36  25 S29G36    29.99S
$$



USA.gov is the U.S. government's official web portal to all federal, state and local government web resources and services.